Meteo pe oră la Dzierzgoń

Astăzi, 8 Martie, Luni

Timp Temperatura Precipitaţii Vânt Presiune Umiditate
00:00 -4°C° 0 mm 3 m/s 759 mmHg 78%
01:00 -4°C° 0 mm 3 m/s 759 mmHg 77%
02:00 -4°C° 0 mm 3 m/s 759 mmHg 77%
03:00 -4°C° 0 mm 3 m/s 759 mmHg 78%
04:00 -4°C° 0 mm 3 m/s 760 mmHg 78%
05:00 -4°C° 0 mm 3 m/s 760 mmHg 78%
06:00 -4°C° 0 mm 3 m/s 760 mmHg 77%
07:00 -2°C° 0 mm 3 m/s 760 mmHg 77%
08:00 -2°C° 0.1 mm 4 m/s 761 mmHg 73%
09:00 -1°C° 0.1 mm 5 m/s 761 mmHg 68%
10:00 0°C° 0.1 mm 5 m/s 762 mmHg 64%
11:00 -1°C° 0.1 mm 6 m/s 762 mmHg 63%
12:00 -1°C° 0.1 mm 6 m/s 762 mmHg 62%
13:00 -1°C° 0.1 mm 6 m/s 762 mmHg 62%
14:00 -1°C° 0.1 mm 6 m/s 763 mmHg 63%
15:00 -1°C° 0.1 mm 5 m/s 763 mmHg 64%
16:00 -1°C° 0.1 mm 5 m/s 763 mmHg 66%
17:00 -2°C° 0 mm 4 m/s 763 mmHg 71%
18:00 -2°C° 0 mm 3 m/s 764 mmHg 76%
19:00 -3°C° 0 mm 2 m/s 764 mmHg 82%
20:00 -3°C° 0 mm 2 m/s 764 mmHg 82%
21:00 -3°C° 0 mm 2 m/s 764 mmHg 83%
22:00 -1°C° 0 mm 1 m/s 765 mmHg 84%
23:00 -1°C° 0 mm 1 m/s 765 mmHg 86%

Mâine, 9 Martie, Marţi

Timp Temperatura Precipitaţii Vânt Presiune Umiditate
00:00 -1°C° 0 mm 1 m/s 765 mmHg 88%
01:00 -1°C° 0 mm 1 m/s 765 mmHg 89%
02:00 -1°C° 0 mm 1 m/s 765 mmHg 89%
03:00 -1°C° 0 mm 1 m/s 765 mmHg 90%
04:00 -1°C° 0 mm 1 m/s 764 mmHg 90%
05:00 -1°C° 0 mm 1 m/s 764 mmHg 89%
06:00 -1°C° 0 mm 1 m/s 765 mmHg 88%
07:00 -2°C° 0 mm 0 m/s 765 mmHg 87%
08:00 0°C° 0 mm 1 m/s 765 mmHg 82%
09:00 +1°C° 0 mm 1 m/s 765 mmHg 76%
10:00 +1°C° 0 mm 1 m/s 765 mmHg 71%
11:00 +2°C° 0.1 mm 1 m/s 765 mmHg 66%
12:00 +2°C° 0.1 mm 1 m/s 764 mmHg 61%
13:00 +3°C° 0.1 mm 1 m/s 764 mmHg 56%
14:00 +3°C° 0 mm 1 m/s 764 mmHg 56%
15:00 +3°C° 0 mm 1 m/s 764 mmHg 56%
16:00 +3°C° 0 mm 1 m/s 763 mmHg 56%
17:00 +2°C° 0 mm 1 m/s 763 mmHg 60%
18:00 0°C° 0 mm 1 m/s 763 mmHg 65%
19:00 -1°C° 0 mm 1 m/s 763 mmHg 69%
20:00 -1°C° 0 mm 1 m/s 763 mmHg 70%
21:00 -1°C° 0 mm 1 m/s 764 mmHg 71%
22:00 -3°C° 0 mm 2 m/s 764 mmHg 71%
23:00 -3°C° 0 mm 2 m/s 764 mmHg 72%

Poimâine, 10 Martie, Miercuri

Timp Temperatura Precipitaţii Vânt Presiune Umiditate
00:00 -3°C° 0 mm 2 m/s 763 mmHg 73%
01:00 -3°C° 0 mm 2 m/s 763 mmHg 75%
02:00 -3°C° 0 mm 2 m/s 763 mmHg 75%
03:00 -3°C° 0 mm 2 m/s 763 mmHg 75%
04:00 -3°C° 0 mm 2 m/s 763 mmHg 76%
05:00 -1°C° 0 mm 1 m/s 763 mmHg 75%
06:00 -1°C° 0 mm 1 m/s 763 mmHg 75%
07:00 -1°C° 0 mm 1 m/s 763 mmHg 74%
08:00 +1°C° 0 mm 1 m/s 763 mmHg 67%
09:00 +2°C° 0 mm 1 m/s 763 mmHg 61%
10:00 +2°C° 0 mm 2 m/s 763 mmHg 54%
11:00 +3°C° 0 mm 2 m/s 763 mmHg 50%
12:00 +3°C° 0 mm 2 m/s 763 mmHg 47%
13:00 +4°C° 0 mm 2 m/s 763 mmHg 43%
14:00 +4°C° 0 mm 2 m/s 763 mmHg 46%
15:00 +4°C° 0 mm 1 m/s 762 mmHg 49%
16:00 +4°C° 0 mm 1 m/s 762 mmHg 51%
17:00 +2°C° 0 mm 2 m/s 762 mmHg 55%
18:00 +1°C° 0 mm 2 m/s 762 mmHg 59%
19:00 -2°C° 0 mm 2 m/s 762 mmHg 63%
20:00 -2°C° 0 mm 2 m/s 762 mmHg 64%
21:00 -2°C° 0 mm 3 m/s 762 mmHg 66%
22:00 -2°C° 0 mm 3 m/s 762 mmHg 68%
23:00 -2°C° 0 mm 3 m/s 761 mmHg 67%

11 Martie, Joi

Timp Temperatura Precipitaţii Vânt Presiune Umiditate
00:00 -3°C° 0 mm 4 m/s 761 mmHg 66%
01:00 -3°C° 0 mm 4 m/s 760 mmHg 64%
02:00 -4°C° 0 mm 5 m/s 760 mmHg 64%
03:00 -4°C° 0 mm 5 m/s 759 mmHg 63%
04:00 -2°C° 0 mm 5 m/s 758 mmHg 62%
05:00 -3°C° 0 mm 6 m/s 757 mmHg 63%
06:00 -3°C° 0 mm 6 m/s 757 mmHg 65%
07:00 -3°C° 0 mm 7 m/s 756 mmHg 67%
08:00 -2°C° 0.1 mm 7 m/s 755 mmHg 75%
09:00 -2°C° 0.1 mm 8 m/s 754 mmHg 83%
10:00 -3°C° 0.1 mm 9 m/s 753 mmHg 91%
11:00 -3°C° 0.7 mm 9 m/s 752 mmHg 93%
12:00 -3°C° 0.7 mm 9 m/s 752 mmHg 94%
13:00 -1°C° 0.7 mm 9 m/s 751 mmHg 95%
14:00 -1°C° 0.7 mm 9 m/s 749 mmHg 95%
15:00 -1°C° 0.7 mm 8 m/s 748 mmHg 95%
16:00 0°C° 0.7 mm 8 m/s 747 mmHg 95%
17:00 +1°C° 1.1 mm 8 m/s 746 mmHg 95%
18:00 +2°C° 1.1 mm 7 m/s 745 mmHg 96%
19:00 +3°C° 1.1 mm 7 m/s 744 mmHg 96%
20:00 +3°C° 1.4 mm 6 m/s 744 mmHg 94%
21:00 +3°C° 1.4 mm 5 m/s 744 mmHg 92%
22:00 +3°C° 1.4 mm 5 m/s 744 mmHg 90%
23:00 +2°C° 0 mm 5 m/s 744 mmHg 90%

12 Martie, Vineri

Timp Temperatura Precipitaţii Vânt Presiune Umiditate
00:00 +2°C° 0 mm 5 m/s 745 mmHg 90%
01:00 +2°C° 0 mm 5 m/s 745 mmHg 89%
02:00 +2°C° 0 mm 6 m/s 745 mmHg 89%
03:00 +2°C° 0 mm 6 m/s 745 mmHg 88%
04:00 +2°C° 0 mm 6 m/s 745 mmHg 88%
05:00 +2°C° 0.1 mm 7 m/s 745 mmHg 88%
06:00 +2°C° 0.1 mm 7 m/s 745 mmHg 88%
07:00 +1°C° 0.1 mm 8 m/s 745 mmHg 88%
08:00 +2°C° 0.2 mm 7 m/s 746 mmHg 88%
09:00 +2°C° 0.1 mm 7 m/s 746 mmHg 88%
10:00 +2°C° 0.1 mm 6 m/s 747 mmHg 88%
11:00 +2°C° 0.1 mm 8 m/s 747 mmHg 80%
12:00 +3°C° 0.1 mm 9 m/s 748 mmHg 72%
13:00 +5°C° 0.1 mm 10 m/s 748 mmHg 63%
14:00 +3°C° 0.3 mm 10 m/s 749 mmHg 66%
15:00 +3°C° 0.3 mm 9 m/s 749 mmHg 68%
16:00 +2°C° 0.3 mm 8 m/s 749 mmHg 71%
17:00 +3°C° 0 mm 7 m/s 750 mmHg 73%
18:00 +2°C° 0 mm 7 m/s 750 mmHg 75%
19:00 +1°C° 0 mm 6 m/s 751 mmHg 77%
20:00 +1°C° 0 mm 6 m/s 751 mmHg 78%
21:00 +1°C° 0 mm 6 m/s 752 mmHg 80%
22:00 +1°C° 0 mm 6 m/s 752 mmHg 82%
23:00 +1°C° 0 mm 6 m/s 752 mmHg 83%

13 Martie, Sâmbătă

Timp Temperatura Precipitaţii Vânt Presiune Umiditate
00:00 +1°C° 0 mm 5 m/s 752 mmHg 84%
01:00 0°C° 0 mm 5 m/s 752 mmHg 85%
02:00 0°C° 0 mm 5 m/s 752 mmHg 86%
03:00 0°C° 0 mm 5 m/s 752 mmHg 87%
04:00 0°C° 0 mm 5 m/s 752 mmHg 88%
05:00 0°C° 0 mm 5 m/s 752 mmHg 89%
06:00 0°C° 0 mm 5 m/s 752 mmHg 89%
07:00 0°C° 0 mm 5 m/s 752 mmHg 89%
08:00 +1°C° 0 mm 5 m/s 752 mmHg 85%
09:00 +2°C° 0 mm 5 m/s 752 mmHg 80%
10:00 +3°C° 0 mm 6 m/s 752 mmHg 76%
11:00 +4°C° 0 mm 6 m/s 752 mmHg 72%
12:00 +5°C° 0 mm 6 m/s 752 mmHg 69%
13:00 +8°C° 0 mm 7 m/s 751 mmHg 65%
14:00 +7°C° 0 mm 6 m/s 751 mmHg 68%
15:00 +7°C° 0 mm 5 m/s 751 mmHg 71%
16:00 +6°C° 0 mm 4 m/s 751 mmHg 74%
17:00 +6°C° 0.1 mm 4 m/s 751 mmHg 79%
18:00 +5°C° 0.1 mm 5 m/s 751 mmHg 84%
19:00 +3°C° 0.1 mm 5 m/s 751 mmHg 89%
20:00 +4°C° 0.1 mm 4 m/s 751 mmHg 90%
21:00 +3°C° 0.1 mm 3 m/s 752 mmHg 91%
22:00 +3°C° 0.1 mm 2 m/s 752 mmHg 93%
23:00 +2°C° 0 mm 2 m/s 752 mmHg 93%
Arată mai mult

Formular de consimțământ

Meteoprog și furnizorii noștri de servicii pot stoca și accesa date personale, precum cookies, identificatori de dispozitiv sau alte tehnologii similare pe dispozitivul dumneavoastră și procesa astfel de date pentru a personaliza conținutul și reclamele, dar și pentru a oferi caracteristici de social media și pentru a analiza traficul.

  • Stocarea și/sau accesarea informațiilor pe dispozitivul dumneavoastră

    Cookies, identificatori de dispozitiv sau alte informații pot fi stocate sau accesate pe dispozitiv în scopurile indicate mai sus.

  • Reclame și conținut personalizat, evaluarea reclamelor și a conținutului, informații despre audiențe și dezvoltarea produselor

    Reclamele și conținutul pot fi personalizate pe baza unui profil. Pot fi adăugate date suplimentare pentru a personaliza mai bine reclamele și conținutul. Performanța reclamelor și conținutului poate fi măsurată. Pot fi obținute informații despre utilizatorii care au văzut reclamele și conținutul. Aceste date pot fi utilizate pentru a dezvolta sau îmbunătăți experiența utilizatorilor, sistemele și software-ul.

Dând clic pe ‘Sunt de acord’, permiteți utilizarea cookie-urilor menționate, a identificatorilor de dispozitiv, balizelor web sau altor tehnologii similare. Setările pot fi modificate din browser-ul dispozitivului dumneavoastră.

În anumite scopuri, interesele legitime pot prima asupra consimțământului. Puteți citi mai multe informații în acest sens în Politica privind Confidențialitatea Datelor și Cookie.